Medicine Lodge, KS

1:06 PM CDT on March 29, 2017 (GMT -0500)
Medicine Lodge

Weather History for KP28 - December, 2012

Change the Weather History Date:

Thursday, December 27, 2012

  Actual Average Record
Temperature  
Mean Temperature 25 °F 33 °F  
Max Temperature 32 °F 44 °F 71 °F (1956)
Min Temperature 17 °F 22 °F 2 °F (1962)
Degree Days  
Heating Degree Days 40 32  
Month to date heating degree days 701 813  
Since 1 July heating degree days 1437 1671  
Cooling Degree Days 0 0  
Month to date cooling degree days 0 0  
Year to date cooling degree days 2258 1770  
Moisture  
Dew Point 18 °F    
Average Humidity 72    
Maximum Humidity 84    
Minimum Humidity 59    
Precipitation  
Precipitation 0.00 in 0.02 in 0.60 in (1943)
Month to date precipitation 0.19 0.83  
Year to date precipitation 18.11 27.05  
Snow  
Snow 0.00 in 0.10 in - ()
Month to date snowfall 0.0 2.5  
Since 1 July snowfall 0.0 2.7  
Snow Depth 0.00 in    
Sea Level Pressure  
Sea Level Pressure 29.95 in    
Wind  
Wind Speed 9 mph (ESE)    
Max Wind Speed 17 mph    
Max Gust Speed 26 mph    
T = Trace of Precipitation, MM = Missing Value Source: NWS Daily Summary

Daily Weather History Graph

Daily Weather History Graph

Search for Another Location

Airport or City:

Trip Planner

Search our weather history database for the weather conditions in past years. The results will help you decide how hot, cold, wet, or windy it might be!

Date:

Astronomy

Dec. 27, 2012 Rise Set
Actual Time 7:47 AM CST 5:24 PM CST
Civil Twilight 7:18 AM CST 5:53 PM CST
Nautical Twilight 6:45 AM CST 6:25 PM CST
Astronomical Twilight 6:13 AM CST 6:57 PM CST
Moon 5:07 PM CST (12/27) 7:00 AM CST (12/27)
Length of Visible Light 10h 35m
Length of Day
9h 36m
Full, 100% of the Moon is Illuminated
Dec 27
Full
Dec 28
Full
Jan 4
Last Quarter
Jan 11
New
Jan 18
First Quarter

Hourly Weather History & Observations

Time (CST) Temp. Windchill Dew Point Humidity Pressure Visibility Wind Dir Wind Speed Gust Speed Precip Events Conditions
12:56 AM - - - N/A% 30.08 in - SSE 5.8 mph - N/A   Unknown
1:56 AM - - - N/A% 30.06 in - SE 10.4 mph - N/A   Unknown
2:56 AM - - - N/A% 30.02 in - SE 12.7 mph - N/A   Unknown
3:56 AM - - - N/A% 29.98 in - SE 12.7 mph - N/A   Unknown
4:56 AM - - - N/A% 29.94 in - SSE 12.7 mph 23.0 mph N/A   Unknown
5:56 AM - - - N/A% 29.94 in - SE 10.4 mph - N/A   Unknown
6:56 AM 19.0 °F 9.0 °F 14.0 °F 81% 29.96 in - SE 8.1 mph - N/A   Unknown
7:56 AM 18.0 °F 5.4 °F 14.0 °F 84% 29.94 in - SE 11.5 mph - N/A   Unknown
8:56 AM 19.0 °F 6.8 °F 15.1 °F 85% 29.93 in - SE 11.5 mph 18.4 mph N/A   Unknown
9:56 AM 24.1 °F 12.0 °F 17.1 °F 75% 29.93 in - SSE 13.8 mph 26.5 mph N/A   Unknown
10:56 AM 26.1 °F 16.2 °F 19.0 °F 75% 29.93 in - South 10.4 mph 19.6 mph N/A   Unknown
11:56 AM 28.0 °F 17.0 °F 19.0 °F 69% 29.91 in - South 13.8 mph - N/A   Unknown
12:56 PM 28.0 °F 19.3 °F 19.0 °F 69% 29.89 in - South 9.2 mph - N/A   Unknown
1:56 PM 30.0 °F 25.2 °F 19.9 °F 66% 29.88 in - Variable 4.6 mph - N/A   Unknown
2:56 PM 30.9 °F 27.5 °F 19.9 °F 64% 29.87 in - South 3.5 mph - N/A   Unknown
3:56 PM 32.0 °F 27.5 °F 19.9 °F 61% 29.88 in - NE 4.6 mph - N/A   Unknown
4:56 PM 30.9 °F 25.2 °F 19.9 °F 64% 29.89 in - NNE 5.8 mph - N/A   Unknown
5:56 PM 27.0 °F 21.6 °F 19.0 °F 72% 29.92 in - North 4.6 mph - N/A   Unknown
6:56 PM 26.1 °F 20.5 °F 18.0 °F 71% 29.94 in - North 4.6 mph - N/A   Unknown
7:56 PM 28.0 °F 18.6 °F 19.0 °F 69% 29.96 in - North 10.4 mph - N/A   Unknown
8:56 PM 28.0 °F 19.3 °F 19.0 °F 69% 29.97 in - North 9.2 mph - N/A   Unknown
9:56 PM 27.0 °F 18.7 °F 18.0 °F 69% 29.99 in - North 8.1 mph - N/A   Unknown
10:56 PM 27.0 °F 19.5 °F 18.0 °F 69% 30.00 in - NNW 6.9 mph - N/A   Unknown
11:56 PM 27.0 °F 18.7 °F 18.0 °F 69% 30.02 in - NW 8.1 mph - N/A   Unknown